Flag for Canada Weather past 2 weeks in Oshawa, Ontario, Canada

Now
66 °F

Overcast.


Feels Like: 66 °F
Forecast: 64 / 75 °F
Wind: 8 mph from Southwest

Location: Toronto Buttonville

Current Time: Aug 3, 2015 at 1:33:40 AM

Latest Report: Aug 3, 2015 at 1:00 AM


Visibility: 15 mi

Pressure: 29.62 "Hg

Humidity: 88%

Dew point: 63 °F

Location of OshawaLocation

Historic Weather in Oshawa — Graph

°F

Oshawa temperature yesterday

Maximum temperature yesterday: 84 °F (at 2:00 PM)
Minimum temperature yesterday: 61 °F (at 5:00 AM)
Average temperature yesterday: 70 °F

Past Weeks' High & Low Weather Summary

 TemperatureHumidityPressure
High91 °F (Jul 27, 4:00 PM)89% (Jul 19, 5:00 AM)30.03 "Hg (Jul 19, 5:00 AM)
Low55 °F (Jul 23, 6:00 AM)31% (Jul 30, 6:00 PM)29.61 "Hg (Jul 21, 3:00 AM)
Average75 °F58%29.85 "Hg
* Reported Midnight between Jul 18 and Jul 19 — Midnight between Aug 2 and Aug 3, Oshawa, Weather by CustomWeather, © 2015

Note: Actual official high and low records may vary slightly from our data, if they occured in-between our weather recording intervals... More about our weather records

Advertising

Oshawa weather history for previous 24 hours

 ConditionsComfort  
Time TempWeatherWind HumidityBarometerVisibility
12:00 AM
Mon, Aug 3
66 °FOvercast.6 mph88%29.63 "Hg15 mi
11:00 PM
Sun, Aug 2
66 °FSprinkles. Overcast.8 mph88%29.64 "Hg15 mi
10:00 PM66 °FThunderstorms. Mostly cloudy.2 mph88%29.65 "Hg15 mi
9:50 PM68 °FThunderstorms. Mostly cloudy.3 mph83%29.65 "Hg15 mi
9:00 PM66 °FMostly cloudy.5 mph88%29.65 "Hg15 mi
8:00 PM68 °FMore clouds than sun.3 mph83%29.67 "Hg15 mi
7:00 PM66 °FCloudy.3 mph83%29.72 "Hg15 mi
6:04 PM64 °FOvercast.10 mph88%29.75 "Hg15 mi
5:00 PM79 °FPartly sunny.12 mph58%29.73 "Hg15 mi
4:00 PM82 °FPartly sunny.18 mph42%29.74 "Hg15 mi
3:00 PM84 °FScattered clouds.18 mph35%29.75 "Hg15 mi
2:00 PM84 °FScattered clouds.12 mph37%29.76 "Hg15 mi
1:00 PM82 °FScattered clouds.9 mph37%29.79 "Hg15 mi
12:00 PM81 °FScattered clouds.13 mph39%29.81 "Hg15 mi
11:00 AM77 °FScattered clouds.7 mph44%29.81 "Hg15 mi
10:00 AM75 °FScattered clouds.5 mph54%29.83 "Hg15 mi
9:00 AM70 °FPartly sunny.3 mph69%29.84 "Hg15 mi
8:00 AM66 °FPartly sunny.2 mph73%29.83 "Hg15 mi
7:00 AM61 °FPassing clouds.No wind88%29.83 "Hg15 mi
6:00 AM61 °FPassing clouds.No wind83%29.82 "Hg15 mi
5:00 AM61 °FPassing clouds.No wind88%29.83 "Hg15 mi
4:00 AM63 °FPassing clouds.No wind83%29.83 "Hg15 mi
3:00 AM63 °FPassing clouds.No wind83%29.83 "Hg15 mi
2:00 AM63 °FPassing clouds.No wind88%29.84 "Hg15 mi
1:00 AM63 °FPassing clouds.2 mph83%29.84 "Hg15 mi
Weather by CustomWeather, © 2015

See weather overviewHow to use our weather pages